Location: LewisvilleTX
(33.0462°N, 96.9942°W)
Time: 21:34:07
(UTC+00:00)

N. Korean satellite - Pass Details

Date: 06 December 2021
Orbit: 447 x 490 km, 97.3° (Epoch: 27 January)

Event Time Altitude Azimuth Distance (km) Brightness Sun altitude
Rises 23:50:26 0° 203° (SSW) 2,528 11.0 -6.4°
Reaches altitude 10° 23:53:06 10° 225° (SW) 1,644 10.5 -7.0°
Maximum altitude 23:55:21 16° 265° (W) 1,311 10.0 -7.4°
Drops below altitude 10° 23:57:36 10° 305° (NW) 1,634 9.7 -7.8°
Sets 00:00:15 0° 327° (NNW) 2,505 10.3 -8.4°
